Home > Weather > Recife > Past weeks

Flag for Brazil Weather for the Past 2 Weeks in Recife, Pernambuco, Brazil

Now
77 °F

Passing clouds.


Feels Like: 78 °F
Forecast: 79 / 86 °F
Wind: 6 mph from Northwest

Location: Recife Aeroporto

Current Time: Feb 13, 2016 at 5:00:17 AM

Latest Report: Feb 13, 2016 at 4:00 AM


Visibility: N/A

Pressure: 29.89 "Hg

Humidity: 89%

Dew point: 73 °F

Location of RecifeLocation

Historic Weather in Recife — Graph

°F

Recife Temperature Yesterday

Maximum temperature yesterday: 88 °F (at 12:00 PM)
Minimum temperature yesterday: 73 °F (at 4:00 AM)
Average temperature yesterday: 81 °F

High & Low Weather Summary for the Past Weeks

 TemperatureHumidityPressure
High88 °F (Feb 2, 11:00 AM)94% (Feb 8, 5:00 AM)30.04 "Hg (Feb 8, 5:00 AM)
Low70 °F (Jan 29, 7:00 PM)52% (Jan 31, 2:00 PM)29.83 "Hg (Feb 2, 3:00 PM)
Average82 °F74%29.93 "Hg
* Reported Jan 29 4:00 AM — Feb 13 4:00 AM, Recife, Weather by CustomWeather, © 2016

Note: Actual official high and low records may vary slightly from our data, if they occured in-between our weather recording intervals... More about our weather records

Advertising

Recife Weather History for the Previous 24 Hours

 ConditionsComfort  
Time TempWeatherWind HumidityBarometerVisibility
4:00 AM
Sat, Feb 13
77 °FPassing clouds.6 mph89%29.89 "HgN/A
3:00 AM77 °FPassing clouds.6 mph89%29.86 "HgN/A
2:00 AM79 °FPassing clouds.6 mph84%29.86 "HgN/A
1:00 AM81 °FPassing clouds.7 mph79%29.89 "HgN/A
12:00 AM81 °FPassing clouds.6 mph84%29.89 "HgN/A
11:00 PM
Fri, Feb 12
81 °FPassing clouds.6 mph79%29.92 "HgN/A
10:00 PM81 °FPassing clouds.6 mph79%29.92 "HgN/A
9:00 PM82 °FPassing clouds.7 mph74%29.92 "HgN/A
8:00 PM82 °FPassing clouds.7 mph74%29.89 "HgN/A
7:00 PM82 °FPassing clouds.6 mph74%29.89 "HgN/A
6:00 PM82 °FSunny.7 mph74%29.86 "Hg10 mi
5:00 PM84 °FSunny.8 mph66%29.86 "Hg10 mi
4:00 PM84 °FSunny.8 mph66%29.83 "Hg10 mi
3:00 PM86 °FSunny.9 mph62%29.83 "Hg10 mi
2:00 PM86 °FSunny.10 mph62%29.86 "Hg10 mi
1:00 PM86 °FPassing clouds.10 mph59%29.86 "HgN/A
12:00 PM88 °FPassing clouds.9 mph55%29.89 "HgN/A
11:00 AM86 °FPassing clouds.7 mph62%29.92 "HgN/A
10:00 AM86 °FPassing clouds.8 mph59%29.92 "HgN/A
9:00 AM84 °FPassing clouds.6 mph58%29.92 "HgN/A
8:00 AM82 °FPassing clouds.5 mph70%29.95 "HgN/A
7:00 AM77 °FScattered clouds.3 mph83%29.92 "HgN/A
6:00 AM73 °FPassing clouds.5 mph89%29.89 "HgN/A
5:00 AM73 °FPassing clouds.6 mph89%29.89 "HgN/A
Weather by CustomWeather, © 2016

See weather overviewHow to use our weather pages